Regional Weather Roundup
Issued by NWS Goodland, KS

Home | Current Version | Previous Version | Graphics & Text | Print | Product List | Glossary On
Versions: 1 2 3 4 5 6 7 8 9 10 11 12 13 14 15 16 17 18 19 20 21 22 23 24 25 26 27 28 29 30 31 32 33 34 35 36 37 38 39 40 41 42 43 44 45 46 47 48 49 50
000
ASUS43 KGLD 210959
RWRGLD

GOODLAND FORECAST AREA HOURLY WEATHER ROUNDUP
NATIONAL WEATHER SERVICE GOODLAND KS
400 AM MDT SAT OCT 21 2017

...OFFICIAL OBSERVATIONS...

CITY           SKY/WX    TMP DP  RH WIND       PRES   REMARKS
GOODLAND KS    CLOUDY    54  37  52 NW20G30   29.61R
HILL CITY KS   CLOUDY    67  59  75 S21G36    29.52S
IMPERIAL NEB   PTCLDY    55  38  52 NW17G25   29.58R
MCCOOK NEB     PTCLDY    62  52  69 SW18      29.47R
AKRON CO       CLOUDY    48  24  39 NW17      29.70R
BURLINGTON CO  CLOUDY    51  35  54 NW10      29.65R
LIMON CO       CLOUDY    46  32  58 N12       29.69R
$$

...UNOFFICIAL OBSERVATIONS...

CITY           SKY/WX    TMP DP  RH WIND       PRES   REMARKS
LENORA KS        N/A     56  32  40 W8G15       N/A
NORTON KS      CLEAR     64  54  68 S22G35    29.47
SHARON SPRINGS   N/A     55  43  63 NW10G24     N/A
TRENTON NEB      N/A     56  32  40 W8G15       N/A
YUMA CO        FAIR      48  10  21 NW21G30   29.64R
$$



USA.gov is the U.S. government's official web portal to all federal, state and local government web resources and services.